User: anonymous   Login
Location: Fort Wayne
(41.1310°N, 85.1290°W)
Time: 20:25:59
(UTC-05:00)
Language:

Gbstr 26 Del rocket - Orbit

View from above orbital plane
View from above orbital plane
View from above satellite
View from above satellite

Ground track
Ground track

The orbit data is extracted from the following two-line orbital elements,

1 25876U 99041E   18048.47691568 -.00000027  00000-0  37101-4 0  9994
2 25876  51.7643  69.0463 0531330  23.0105 339.3702 14.04170696949085
Epoch (UTC): 17 February 2018 11:26:45
Eccentricity: 0.0531330
inclination: 51.7643°
perigee height: 494 km
apogee height: 1265 km
right ascension of ascending node: 69.0463°
argument of perigee: 23.0105°
revolutions per day: 14.04170696
mean anomaly at epoch: 339.3702°
orbit number at epoch: 94908

The dashed part of the orbit path shows where the satellite is in the earth's shadow,  

DLR